Flag for U.S.A. Weather past 2 weeks in Columbus, Georgia, U.S.A.

Now
60 °F

Overcast.


Feels Like: 60 °F
Forecast: 59 / 76 °F
Wind: 7 mph from Southwest

Location: Columbus Metropolitan Airport

Current Time: Mar 4, 2015 at 8:05:30 AM

Latest Report: Mar 4, 2015 at 6:51 AM


Visibility: 10 mi

Pressure: 30.06 "Hg

Humidity: 93%

Dew point: 58 °F

Location of ColumbusLocation

Historic Weather in Columbus — Graph

°F

Columbus temperature yesterday

Maximum temperature yesterday: 77 °F (at 3:51 PM)
Minimum temperature yesterday: 57 °F (at 7:58 AM)
Average temperature yesterday: 66 °F

Past Weeks' High & Low Weather Summary

 TemperatureHumidityPressure
High77 °F (Mar 3, 3:51 PM)100% (Feb 22, 7:51 AM)30.53 "Hg (Feb 22, 7:51 AM)
Low21 °F (Feb 19, 6:51 AM)14% (Feb 19, 3:51 PM)29.67 "Hg (Feb 25, 9:51 PM)
Average45 °F67%30.19 "Hg
* Reported Feb 17 6:51 AM — Mar 4 6:51 AM, Columbus, Weather by CustomWeather, © 2015

Note: Actual official high and low records may vary slightly from our data, if they occured in-between our weather recording intervals... More about our weather records

Advertising

Columbus weather history for previous 24 hours

 ConditionsComfort  
Time TempWeatherWind HumidityBarometerVisibility
6:51 AM
Wed, Mar 4
60 °FOvercast.7 mph93%30.06 "Hg10 mi
5:51 AM60 °FLow clouds.9 mph96%30.06 "Hg10 mi
4:51 AM58 °FFog.No wind100%30.03 "Hg3 mi
3:51 AM58 °FClear.No wind97%30.03 "Hg8 mi
2:51 AM61 °FClear.No wind93%30.03 "Hg10 mi
1:51 AM63 °FClear.No wind87%30.05 "Hg10 mi
12:51 AM64 °FClear.3 mph87%30.06 "Hg10 mi
11:51 PM
Tue, Mar 3
66 °FClear.5 mph81%30.06 "Hg10 mi
10:51 PM68 °FOvercast.6 mph76%30.07 "Hg10 mi
9:51 PM69 °FMostly cloudy.6 mph73%30.08 "Hg10 mi
8:51 PM70 °FPassing clouds.5 mph71%30.07 "Hg10 mi
7:51 PM71 °FPassing clouds.No wind68%30.06 "Hg10 mi
6:51 PM73 °FPassing clouds.3 mph62%30.05 "Hg10 mi
5:51 PM76 °FOvercast.6 mph58%30.04 "Hg10 mi
4:51 PM77 °FScattered clouds.10 mph56%30.04 "Hg10 mi
3:51 PM77 °FPartly sunny.7 mph58%30.06 "Hg10 mi
2:51 PM74 °FCloudy.7 mph67%30.08 "Hg10 mi
1:51 PM70 °FMostly cloudy.5 mph79%30.12 "Hg10 mi
1:00 PM68 °FOvercast.5 mph83%30.17 "Hg10 mi
11:51 AM65 °FLow clouds.5 mph91%30.19 "Hg10 mi
10:51 AM63 °FFog.5 mph93%30.20 "Hg6 mi
9:51 AM61 °FFog.No wind93%30.21 "Hg4 mi
8:51 AM59 °FFog.5 mph96%30.20 "Hg2 mi
Weather by CustomWeather, © 2015

See weather overviewHow to use our weather pages